Weather History for Cortez, CO

Change the Weather History Date:

Thursday, October 3, 2013

  Actual Average Record
Temperature  
Mean Temperature 56 °F 54 °F  
Max Temperature 74 °F 71 °F 82 °F (2012)
Min Temperature 37 °F 36 °F 32 °F (1999)
Degree Days  
Heating Degree Days 9 12  
Month to date heating degree days 30 34  
Since 1 July heating degree days 147 206  
Cooling Degree Days 0 0  
Month to date cooling degree days 0 0  
Year to date cooling degree days 667 426  
Growing Degree Days 5 (Base 50)    
Moisture  
Dew Point 30 °F    
Average Humidity 48    
Maximum Humidity 76    
Minimum Humidity 19    
Precipitation  
Precipitation T in 0.06 in 1.28 in (1996)
Month to date precipitation T 0.18  
Year to date precipitation 11.37 10.40  
Sea Level Pressure  
Sea Level Pressure 29.79 in    
Wind  
Wind Speed 11 mph (South)    
Max Wind Speed 26 mph    
Max Gust Speed 38 mph    
Visibility 10 miles    
Events      
T = Trace of Precipitation, MM = Missing Value Source: NWS Daily Summary

Daily Weather History Graph

Daily Weather History Graph

Search for Another Location

Airport:

Trip Planner

Search our weather history database for the weather conditions in past years. The results will help you decide how hot, cold, wet, or windy it might be!

Date:

Astronomy

Oct. 03, 2013 Rise Set
Actual Time 7:11 AM MDT 6:54 PM MDT
Civil Twilight 6:45 AM MDT 7:20 PM MDT
Nautical Twilight 6:15 AM MDT 7:50 PM MDT
Astronomical Twilight 5:45 AM MDT 8:20 PM MDT
Moon 5:49 AM MDT (10/3) 6:04 PM MDT (10/3)
Length of Visible Light 12h 34m
Length of Day
11h 42m
Waning Crescent, 2% of the Moon is Illuminated
Oct 3
Waning Crescent
Oct 4
New
Oct 11
First Quarter
Oct 18
Full
Oct 26
Last Quarter

Hourly Weather History & Observations

Time (MDT) Temp. Windchill Dew Point Humidity Pressure Visibility Wind Dir Wind Speed Gust Speed Precip Events Conditions
12:53 AM 39.9 °F 37.8 °F 30.9 °F 70% 29.85 in 10.0 mi ESE 3.5 mph - N/A   Clear
1:53 AM 39.9 °F 37.8 °F 30.0 °F 68% 29.84 in 10.0 mi East 3.5 mph - N/A   Clear
2:53 AM 41.0 °F 35.8 °F 30.0 °F 65% 29.83 in 10.0 mi ENE 8.1 mph - N/A   Clear
3:53 AM 41.0 °F - 30.0 °F 65% 29.83 in 10.0 mi Calm Calm - N/A   Clear
4:53 AM 39.0 °F 34.8 °F 30.0 °F 70% 29.83 in 10.0 mi NNE 5.8 mph - N/A   Clear
5:53 AM 39.0 °F 36.8 °F 28.9 °F 67% 29.84 in 10.0 mi NNE 3.5 mph - N/A   Clear
6:53 AM 39.0 °F 34.8 °F 28.9 °F 67% 29.87 in 10.0 mi ENE 5.8 mph - N/A   Clear
7:53 AM 37.9 °F - 30.9 °F 76% 29.91 in 10.0 mi Calm Calm - N/A   Clear
8:53 AM 46.9 °F - 32.0 °F 56% 29.90 in 10.0 mi East 4.6 mph - N/A   Clear
9:53 AM 57.9 °F - 32.0 °F 37% 29.86 in 10.0 mi WSW 3.5 mph - N/A   Clear
10:53 AM 63.0 °F - 33.1 °F 33% 29.85 in 10.0 mi SW 12.7 mph - N/A   Clear
11:53 AM 66.9 °F - 33.1 °F 28% 29.82 in 10.0 mi South 13.8 mph 21.9 mph N/A   Clear
12:53 PM 68.0 °F - 30.9 °F 25% 29.78 in 10.0 mi SSW 11.5 mph 21.9 mph N/A   Clear
1:03 PM 68.0 °F - 30.2 °F 24% 29.92 in 9.0 mi SSW 10.4 mph 23.0 mph N/A   Partly Cloudy
1:53 PM 68.0 °F - 32.0 °F 26% 29.75 in 10.0 mi South 17.3 mph 26.5 mph N/A   Scattered Clouds
2:53 PM 71.1 °F - 30.9 °F 23% 29.70 in 10.0 mi South 15.0 mph 23.0 mph N/A   Partly Cloudy
3:53 PM 73.0 °F - 32.0 °F 22% 29.66 in 10.0 mi South 18.4 mph 24.2 mph N/A   Scattered Clouds
4:53 PM 70.0 °F - 30.9 °F 24% 29.66 in 10.0 mi South 15.0 mph - N/A   Overcast
5:53 PM 69.1 °F - 28.0 °F 22% 29.64 in 10.0 mi SSW 17.3 mph - N/A   Overcast
6:53 PM 68.0 °F - 25.0 °F 20% 29.63 in 10.0 mi SW 11.5 mph - N/A   Mostly Cloudy
7:53 PM 66.0 °F - 26.1 °F 22% 29.65 in 10.0 mi SSW 15.0 mph 23.0 mph N/A   Overcast
8:53 PM 64.0 °F - 27.0 °F 25% 29.65 in 10.0 mi SSW 12.7 mph - N/A   Overcast
10:53 PM 44.1 °F 36.8 °F 28.9 °F 55% 29.82 in 10.0 mi NNW 16.1 mph 27.6 mph N/A   Overcast
11:53 PM 43.0 °F 33.5 °F 24.1 °F 47% 29.86 in 10.0 mi North 24.2 mph 33.4 mph N/A   Overcast